Regional Weather Roundup
Issued by NWS

Home | Current Version | Previous Version | Graphics & Text | Print | Product List | Glossary On
Versions: 1 2 3 4 5 6 7 8 9 10 11 12 13 14 15 16 17 18 19 20 21 22 23 24 25 26 27
000
ASUS45 KBOU 230107
RWRCO

WEATHER ROUNDUP FOR COLORADO
NATIONAL WEATHER SERVICE DENVER/BOULDER CO
700 PM MDT SAT JUL 22 2017

NOTE: "FAIR" INDICATES FEW OR NO CLOUDS BELOW 12000 FEET WITH NO
SIGNIFICANT WEATHER AND/OR OBSTRUCTIONS TO VISIBILITY.

COZ001>005-013-030-031-230200-
...NORTHWEST COLORADO...

CITY           SKY/WX    TMP DP  RH WIND       PRES   REMARKS
CRAIG          FAIR      87  26  11 NE3       30.20S
HAYDEN         FAIR      82  30  15 NE7       30.23R
MEEKER         FAIR      86  33  15 NE8       30.21S
RABBIT EARS PA FAIR      63  32  31 NW9G23    30.57S
STEAMBOAT SPGS FAIR      82  32  16 W8        30.24S
WALDEN         FAIR      75  28  17 N13       30.38R
$$

COZ006>008-011-230200-
...WEST CENTRAL VALLEYS...

CITY           SKY/WX    TMP DP  RH WIND       PRES   REMARKS
GRAND JUNCTION FAIR      93  50  23 W9        30.03S
MONTROSE       CLOUDY    83  50  31 S13       30.17R
EAGLE          FAIR      85  41  21 NW9       30.22S
RIFLE          FAIR      92  37  14 N10       30.11R
DELTA          FAIR      90  51  25 S5        30.10S
NUCLA          NOT AVBL
$$

COZ017>023-064>068-230200-
...SOUTHWEST COLORADO...

CITY           SKY/WX    TMP DP  RH WIND       PRES   REMARKS
DURANGO        LGT RAIN  63  56  78 NE8       30.29F
CORTEZ         PTSUNNY   76  54  46 NE8       30.18R
PAGOSA SPRINGS LGT RAIN  62  54  75 CALM      30.39R
TELLURIDE      FAIR      63  51  64 CALM      30.46R
WOLF CREEK PAS DRIZZLE   46  41  81 CALM      30.72S
$$

COZ009-010-012-014-032>034-037-058>063-230200-
...CENTRAL COLORADO...

CITY           SKY/WX    TMP DP  RH WIND       PRES   REMARKS
ASPEN          FAIR      75  47  36 SE13      30.31R
BUENA VISTA    FAIR      60  51  69 SE20G26   30.42R
COPPER MTN     FAIR      63  36  36 CALM      30.69S
BERTHOUD PASS  FAIR      48  34  57 CALM      30.73R
COTTONWOOD PAS CLOUDY    59  41  51 W6G16     30.54F
GUNNISON       LGT RAIN  65  51  60 E16       30.40R
KREMMLING      FAIR      86  28  12 NW9G16    30.29S
LEADVILLE      FAIR      56  42  59 SE3       30.52S
MONARCH PASS   CLOUDY    45  43  93 NE20      30.79R
SALIDA         CLOUDY    59  55  86 W8        30.49F
SUNLIGHT       FAIR      61  36  39 CALM      30.60S
WILKERSON PASS FAIR      54  41  62 CALM      30.67S
$$

COZ069>075-230200-
...SAN LUIS VALLEY/SANGRE DE CRISTO MOUNTAINS...

CITY           SKY/WX    TMP DP  RH WIND       PRES   REMARKS
ALAMOSA        PTSUNNY   63  53  70 S5        30.38R
DEL NORTE      CLOUDY    65  49  56 SW5       30.40R
LA VETA PASS   NOT AVBL
SAGUACHE         N/A    N/A N/A N/A MISG        N/A
$$

COZ035-036-038>040-230200-
...NORTHERN COLORADO FRONT RANGE...

CITY           SKY/WX    TMP DP  RH WIND       PRES   REMARKS
DENVER INTL AP PTSUNNY   86  51  29 SE7       30.14S
DMNS CITY PARK   N/A     86  48  26 CALM      30.13S
AURORA         NOT AVBL
FRONT RANGE AP FAIR      86  50  28 SE15      30.16S
ERIE MUNI ARPT FAIR      87  43  21 CALM      30.12S
BOULDER MUN AP FAIR      84  45  24 CALM      30.14R
CENTENNIAL     PTSUNNY   82  48  30 W6        30.18S
BROOMFIELD     FAIR      84  45  24 E5        30.17S
FORT COLLINS   FAIR      88  51  28 SE9       30.12S
LONGMONT       FAIR      89  47  23 E3        30.13S
$$

COZ041-046-047-076>085-087-088-230200-
...PIKES PEAK/PALMER DIVIDE AND SOUTHERN FOOTHILLS...

CITY           SKY/WX    TMP DP  RH WIND       PRES   REMARKS
COLO. SPRINGS  TSTM      69  62  78 SW16      30.25R
A. F. ACADEMY  NOT AVBL
SCHRIEVER AFB  NOT AVBL
CHEYENNE MTN   NOT AVBL
ELLICOTT       FAIR     N/A N/A N/A SE10      30.23R
FALCON           N/A     76  53  44 SE3       30.30R
FORT CARSON    NOT AVBL
LIMON          FAIR      76  57  51 SE8       30.18R
MONUMENT HILL  FAIR      72  54  53 SE3       30.31R
CANON CITY     TSTM      70  57  64 S7G28     30.24R VSB 1
WALSENBURG     MOCLDY    72  57  60 W10       30.26R
TRINIDAD       FAIR      71  55  56 SW9       30.24F
$$

COZ042>045-048>051-090-091-230200-
...NORTHEAST COLORADO...

CITY           SKY/WX    TMP DP  RH WIND       PRES   REMARKS
GREELEY ARPT   FAIR      85  56  37 E12       30.10R
AKRON          FAIR      79  50  36 SE12      30.13R
BURLINGTON     FAIR      82  49  31 NE7       30.11R
WRAY           NOT AVBL
YUMA           FAIR      77  52  41 E6        30.11R
STERLING       FAIR      82  50  32 SE9       30.08R
HOLYOKE        FAIR      84  48  28 SE7       30.09S
FORT MORGAN    FAIR      83  44  25 SE13      30.11S
$$

COZ086-089-092>099-230200-
...SOUTHEAST COLORADO...

CITY           SKY/WX    TMP DP  RH WIND       PRES   REMARKS
PUEBLO         FAIR      82  54  37 SW15      30.12R
LA JUNTA       FAIR      85  58  39 E7        30.08S
LAMAR          FAIR      86  58  38 NE9       30.03S
SPRINGFIELD      N/A     84  56  38 NE18      30.06R
$$




USA.gov is the U.S. government's official web portal to all federal, state and local government web resources and services.